Temp
19 20 20 21 21 22 22 23 23 24 24 24 24 24 25 25 25 26 27 27 27 27 27 27 27 27 25 25 25 25 21 22 27 30 31 29 28 24 26 24 25 25 23 22 21
20 20 20 21 21 22 23 23 23 23 24 24 24 24 25 25 25 27 27 28 27 27 27 27 27 27 26 27 27 25 22 27 31 31 31 32 30 26 25 25 25 24 23 22 21
20 20 20 21 21 22 22 23 23 24 24 24 24 24 24 25 26 27 28 28 28 28 28 27 27 27 27 29 29 28 27 30 31 33 33 32 32 29 25 25 25 23 23 21 22
20 20 20 21 21 22 22 23 23 24 24 24 24 24 24 25 25 27 27 27 27 28 28 28 28 28 27 26 30 29 31 32 32 32 33 32 33 29 28 26 26 25 24 23 22
20 20 21 21 21 22 22 23 23 23 24 24 24 24 24 25 27 27 27 27 27 27 27 28 27 28 26 27 29 29 29 32 32 33 33 33 32 32 28 27 25 24 23 23 23
20 20 21 21 22 22 22 23 23 23 23 24 24 24 24 24 27 27 27 27 27 27 28 28 29 29 28 28 27 29 29 30 32 32 33 32 32 31 27 26 25 24 23 23 23
20 21 21 22 22 22 22 23 23 23 23 24 24 25 24 27 27 27 27 27 28 28 28 28 28 29 29 26 30 29 28 27 30 31 32 32 30 29 26 26 25 24 24 23 24
20 21 21 22 22 22 23 23 23 23 23 24 24 24 26 27 26 27 27 27 27 27 28 28 28 29 29 29 28 27 26 26 28 30 32 30 28 30 26 26 25 25 24 24 24
20 21 22 22 23 23 23 23 23 23 23 23 23 23 26 26 26 27 27 28 28 28 28 28 29 28 28 25 22 23 24 26 29 32 31 28 28 31 30 26 26 25 25 24 24
20 21 22 22 23 23 23 24 23 23 24 24 23 23 26 27 27 28 28 28 27 28 28 28 28 24 22 22 23 26 27 28 29 31 28 27 28 29 30 29 26 26 25 25 24
20 21 22 22 23 24 24 23 24 23 24 26 25 26 28 28 27 27 28 28 28 29 26 28 24 23 24 23 25 27 29 27 29 30 28 27 28 27 28 28 26 26 27 25 25
20 21 22 23 23 24 24 24 25 24 24 26 27 26 28 28 28 28 28 28 28 25 26 24 24 26 26 28 28 30 29 27 29 31 29 26 28 27 26 26 27 27 26 26 25
20 21 22 23 23 23 24 24 25 25 23 26 28 28 29 29 29 28 28 29 27 26 26 24 27 29 29 30 29 26 28 29 30 29 28 27 26 27 26 25 26 26 27 26 26
19 20 21 23 23 23 24 24 24 25 18 23 26 29 29 30 29 30 29 29 27 26 26 25 28 31 31 30 27 27 29 29 28 26 26 27 24 26 24 24 24 25 26 27 26
19 20 21 21 22 23 23 24 24 25 21 28 27 30 30 30 30 29 30 29 27 27 28 27 30 30 29 30 29 29 30 29 29 26 25 26 23 23 23 22 23 24 25 26 26
19 19 21 21 22 23 23 24 24 20 22 28 29 28 27 29 29 29 30 30 30 28 27 27 31 31 30 31 31 31 28 24 21 21 22 24 24 23 22 24 23 24 25 25 25
19 19 20 21 23 22 23 24 19 20 26 28 27 26 25 26 28 28 27 27 25 26 25 26 28 30 31 29 27 25 21 20 22 20 22 24 24 23 24 25 25 24 25 26 25
19 20 21 22 23 22 22 19 21 24 26 29 27 25 25 26 26 27 26 25 25 25 23 24 25 28 29 28 27 28 22 20 24 22 22 23 24 24 24 26 26 27 26 25 25
19 20 22 24 22 22 21 17 19 23 28 28 27 26 25 27 27 27 25 25 26 24 25 24 27 29 30 30 27 28 24 23 21 20 21 22 25 25 25 24 24 25 25 24 25
18 20 23 24 22 21 17 16 20 25 27 26 27 26 24 26 26 26 25 27 28 27 26 26 26 27 30 29 29 26 25 23 18 23 24 22 24 21 25 23 23 23 24 25 25
18 18 24 24 21 20 15 16 22 27 27 26 27 27 26 27 28 24 26 29 28 26 27 24 23 26 27 27 26 25 24 21 19 18 19 20 21 21 24 21 21 22 25 25 24
16 12 21 22 19 17 16 20 24 25 27 25 28 27 27 27 27 26 27 28 28 27 26 25 20 23 26 26 26 23 23 20 19 22 18 18 20 22 23 23 24 23 24 24 25
13 15 22 22 17 15 18 21 23 23 24 25 27 27 28 27 27 26 27 26 28 24 24 24 20 20 22 22 22 25 25 23 18 17 21 19 20 23 22 21 23 23 23 24 24
11 9 19 22 22 18 19 20 21 25 25 27 26 26 25 26 26 27 27 26 26 26 26 25 18 19 20 22 22 24 24 25 20 18 19 19 22 23 23 19 21 23 23 23 22
10 10 13 12 15 14 18 20 21 22 25 26 25 25 25 25 25 26 25 25 25 26 24 20 21 23 22 23 24 24 24 24 24 23 22 22 21 22 19 18 21 22 22 22 22
10 11 12 12 15 16 17 21 21 23 23 25 24 25 22 22 22 23 23 22 24 24 23 19 19 22 23 23 22 23 23 23 23 24 23 21 21 20 21 22 21 22 22 22 21
9 10 11 12 12 15 15 17 19 22 25 25 24 21 20 22 23 24 24 22 22 21 19 19 17 16 20 20 21 20 23 23 22 22 21 22 20 20 20 20 20 21 21 20 20
Height
1525 1522 1519 1516 1513 1510 1508 1505 1504 1503 1502 1502 1502 1503 1504 1505 1505 1506 1506 1509 1509 1511 1511 1512 1513 1516 1519 1519 1521 1525 1534 1532 1514 1499 1495 1495 1504 1510 1508 1507 1514 1515 1515 1521 1530
1526 1522 1519 1516 1513 1510 1507 1504 1503 1501 1500 1500 1500 1501 1502 1503 1504 1503 1506 1505 1507 1510 1512 1511 1510 1513 1514 1514 1517 1519 1524 1512 1495 1492 1493 1489 1496 1504 1506 1513 1514 1518 1525 1528 1528
1526 1522 1519 1516 1512 1509 1506 1503 1501 1499 1498 1498 1499 1500 1500 1501 1503 1502 1502 1503 1505 1507 1508 1510 1510 1510 1508 1506 1505 1503 1509 1495 1493 1490 1490 1490 1492 1498 1508 1513 1505 1512 1519 1525 1528
1525 1522 1519 1515 1512 1508 1505 1502 1500 1498 1497 1496 1497 1498 1499 1501 1505 1501 1501 1502 1504 1506 1508 1507 1508 1507 1508 1507 1501 1502 1493 1491 1491 1490 1490 1490 1490 1500 1498 1500 1503 1504 1509 1519 1526
1525 1521 1518 1515 1511 1508 1504 1501 1500 1498 1496 1495 1496 1498 1499 1501 1500 1499 1500 1500 1503 1505 1508 1508 1507 1508 1508 1504 1500 1497 1495 1491 1489 1489 1489 1489 1490 1492 1497 1500 1507 1514 1515 1518 1521
1524 1520 1517 1514 1511 1507 1504 1501 1499 1498 1496 1495 1496 1497 1499 1500 1499 1498 1498 1499 1501 1504 1507 1507 1507 1507 1505 1504 1504 1499 1496 1491 1488 1489 1487 1488 1489 1492 1501 1501 1506 1512 1515 1518 1520
1523 1519 1516 1512 1510 1506 1503 1500 1499 1498 1496 1496 1496 1497 1498 1499 1498 1499 1498 1499 1501 1503 1505 1506 1506 1507 1504 1503 1500 1499 1499 1492 1485 1485 1486 1486 1494 1495 1496 1499 1506 1514 1517 1519 1522
1521 1518 1515 1511 1508 1505 1502 1500 1499 1498 1497 1497 1497 1498 1497 1497 1498 1499 1499 1500 1502 1504 1506 1506 1506 1506 1506 1505 1501 1500 1501 1510 1486 1485 1485 1487 1510 1490 1498 1502 1509 1513 1517 1520 1522
1520 1517 1514 1510 1507 1504 1502 1500 1499 1499 1498 1498 1499 1498 1496 1497 1497 1498 1499 1500 1502 1504 1504 1504 1505 1504 1504 1508 1515 1508 1518 1507 1495 1482 1486 1491 1503 1492 1495 1499 1507 1511 1516 1520 1525
1518 1515 1512 1509 1506 1504 1502 1501 1500 1499 1499 1499 1498 1500 1495 1494 1495 1497 1499 1500 1501 1502 1503 1504 1504 1506 1507 1516 1536 1517 1510 1502 1500 1486 1484 1496 1499 1493 1493 1496 1502 1509 1514 1519 1522
1516 1513 1510 1508 1505 1503 1502 1500 1503 1501 1498 1494 1494 1494 1492 1493 1495 1497 1498 1499 1501 1501 1505 1502 1511 1517 1506 1503 1500 1500 1498 1508 1494 1486 1492 1496 1499 1496 1493 1494 1499 1504 1510 1516 1519
1514 1511 1508 1506 1503 1502 1502 1502 1502 1503 1496 1490 1489 1490 1490 1493 1495 1496 1498 1500 1499 1503 1501 1508 1514 1495 1493 1492 1494 1493 1500 1505 1493 1484 1488 1499 1500 1498 1493 1497 1495 1499 1505 1511 1519
1512 1509 1506 1504 1502 1502 1502 1502 1501 1500 1498 1485 1483 1485 1488 1491 1490 1492 1495 1496 1498 1501 1501 1513 1497 1488 1491 1489 1496 1503 1502 1501 1500 1490 1489 1498 1512 1507 1502 1499 1499 1502 1505 1509 1514
1510 1507 1504 1502 1504 1501 1501 1500 1499 1500 1510 1489 1480 1481 1485 1487 1488 1489 1491 1494 1496 1499 1496 1501 1486 1487 1489 1494 1496 1507 1492 1493 1497 1508 1524 1498 1544 1515 1508 1507 1503 1505 1507 1511 1515
1507 1504 1503 1502 1500 1500 1500 1498 1497 1498 1531 1476 1477 1477 1480 1484 1483 1484 1488 1492 1494 1494 1496 1501 1489 1490 1495 1492 1489 1499 1488 1492 1494 1505 1511 1509 1532 1522 1513 1515 1510 1508 1509 1513 1516
1504 1502 1499 1499 1498 1498 1497 1497 1498 1513 1521 1478 1471 1474 1479 1480 1480 1483 1487 1490 1489 1491 1490 1490 1484 1484 1486 1485 1485 1486 1493 1500 1508 1517 1541 1513 1520 1526 1519 1505 1508 1508 1510 1513 1516
1499 1498 1495 1495 1496 1496 1496 1496 1513 1524 1474 1476 1474 1472 1478 1482 1483 1484 1487 1491 1500 1507 1507 1492 1487 1481 1481 1490 1489 1495 1517 1550 1546 1553 1548 1510 1516 1515 1500 1496 1497 1504 1509 1513 1516
1494 1492 1490 1489 1492 1494 1495 1498 1515 1488 1480 1463 1468 1475 1483 1477 1481 1482 1488 1495 1488 1494 1511 1516 1516 1485 1477 1488 1499 1498 1514 1549 1553 1560 1544 1514 1528 1512 1492 1497 1500 1504 1508 1513 1517
1489 1487 1483 1485 1487 1490 1494 1512 1500 1484 1469 1470 1470 1482 1484 1475 1476 1481 1487 1489 1480 1484 1506 1511 1505 1480 1479 1481 1488 1500 1518 1509 1537 1540 1546 1533 1513 1503 1498 1502 1505 1507 1511 1515 1518
1486 1481 1476 1481 1483 1487 1493 1501 1485 1470 1468 1467 1477 1474 1486 1475 1482 1482 1486 1473 1473 1472 1475 1490 1509 1489 1485 1484 1487 1495 1497 1526 1540 1551 1550 1540 1528 1533 1510 1510 1508 1509 1511 1515 1517
1485 1479 1473 1474 1481 1485 1497 1492 1474 1467 1469 1469 1470 1474 1476 1474 1473 1481 1477 1463 1462 1468 1470 1482 1497 1501 1489 1496 1503 1505 1510 1518 1528 1542 1561 1565 1544 1508 1505 1506 1507 1508 1511 1514 1517
1484 1483 1471 1474 1481 1481 1487 1476 1472 1467 1466 1469 1461 1463 1466 1468 1472 1470 1470 1464 1458 1460 1476 1477 1500 1513 1500 1490 1488 1495 1504 1514 1541 1538 1545 1549 1543 1504 1501 1502 1506 1510 1512 1514 1516
1484 1479 1472 1473 1481 1483 1475 1472 1471 1470 1466 1465 1460 1458 1458 1464 1475 1469 1466 1464 1459 1463 1472 1475 1505 1526 1517 1506 1496 1503 1501 1506 1517 1527 1535 1551 1542 1506 1501 1505 1506 1508 1512 1515 1517
1487 1485 1470 1468 1468 1471 1475 1474 1472 1463 1460 1460 1458 1455 1461 1464 1464 1470 1468 1468 1465 1465 1467 1471 1501 1511 1529 1515 1509 1511 1508 1504 1516 1536 1534 1535 1521 1510 1507 1506 1508 1509 1512 1513 1515
1488 1484 1483 1481 1471 1472 1473 1469 1470 1470 1456 1452 1457 1459 1464 1471 1470 1470 1469 1471 1469 1468 1470 1478 1501 1498 1502 1501 1501 1504 1506 1507 1510 1513 1525 1519 1518 1506 1504 1506 1507 1508 1510 1513 1515
1489 1488 1484 1481 1475 1473 1468 1467 1465 1459 1460 1454 1456 1457 1463 1471 1473 1474 1470 1473 1473 1472 1475 1482 1506 1498 1506 1501 1505 1506 1504 1504 1505 1505 1507 1512 1511 1499 1499 1503 1506 1506 1508 1510 1512
1490 1489 1488 1480 1478 1475 1477 1474 1466 1457 1450 1449 1448 1456 1466 1467 1466 1468 1467 1467 1469 1475 1482 1488 1501 1515 1520 1511 1509 1522 1506 1505 1505 1501 1504 1510 1503 1501 1503 1502 1504 1506 1506 1508 1510
Wind_Speed
19 19 18 19 19 14 14 12 9 7 7 6 6 6 6 7 9 10 12 6 6 4 3 2 7 8 9 14 18 13 3 7 9 5 3 16 8 20 8 31 15 10 29 42 42
19 19 19 19 19 16 15 11 9 7 7 8 6 5 6 6 8 12 6 9 10 6 4 6 6 7 12 13 12 11 4 6 3 2 3 9 15 20 10 28 9 26 29 39 43
20 20 19 19 19 18 16 13 10 7 5 6 6 5 4 3 2 1 3 12 9 7 5 7 9 13 6 9 5 6 7 6 1 8 6 4 8 21 25 9 36 38 44 39 44
20 20 19 19 19 18 16 13 10 8 4 3 6 5 4 4 5 2 2 6 11 8 7 5 6 6 4 4 10 5 9 5 4 8 2 1 1 19 20 18 41 49 56 46 41
19 19 19 19 18 18 16 12 8 9 4 1 5 6 5 3 2 2 3 7 12 11 13 7 8 11 3 9 17 1 7 16 11 11 4 2 3 3 21 33 38 42 47 49 42
19 19 19 18 18 18 15 11 7 8 4 1 5 8 5 1 2 6 3 7 11 13 14 8 4 11 13 8 2 14 19 19 13 9 3 2 2 14 23 37 42 43 44 48 46
19 19 18 18 17 17 14 9 5 7 3 3 6 8 3 1 2 5 2 6 10 13 13 6 10 8 13 10 10 16 6 9 12 8 4 16 4 9 37 42 41 39 39 42 46
20 19 18 18 16 15 13 7 3 5 2 3 5 3 3 2 2 1 13 12 11 7 5 6 8 11 5 9 9 5 2 1 9 5 3 9 4 4 38 35 35 36 37 38 44
20 19 17 17 16 12 10 7 3 4 1 4 4 1 2 6 7 9 10 11 8 2 4 7 10 7 5 2 5 4 4 4 5 6 5 6 4 2 23 37 35 35 36 35 36
20 19 17 15 14 9 7 6 4 4 2 4 5 4 6 9 14 8 4 4 8 6 9 9 2 2 3 5 3 5 5 4 4 2 8 8 5 3 19 31 32 35 35 34 36
20 20 17 14 13 4 6 3 4 2 5 8 3 8 6 8 12 11 6 8 9 5 4 2 3 6 11 9 8 7 4 4 5 4 7 9 3 7 15 28 25 27 31 34 37
20 20 17 13 10 1 5 4 8 6 9 14 20 21 16 13 11 12 10 7 4 6 2 5 6 14 7 7 7 4 3 6 3 2 5 6 5 3 10 9 29 27 32 29 30
20 19 17 12 2 1 4 6 8 11 3 12 17 17 9 22 11 20 18 9 3 3 6 6 10 7 7 3 5 4 3 2 1 4 4 7 4 3 4 21 25 25 32 33 33
20 18 17 9 2 4 7 3 7 7 4 7 7 8 13 11 5 17 22 8 4 8 5 6 8 6 1 3 5 3 3 5 5 4 2 4 3 4 4 6 15 23 31 29 26
19 18 14 13 10 2 2 1 2 2 2 4 6 7 14 13 4 10 23 16 6 7 5 6 2 4 5 2 4 4 2 3 3 3 4 2 5 5 4 6 11 16 29 28 26
19 17 17 13 11 5 2 1 1 5 5 3 10 7 8 13 5 19 18 11 4 4 2 7 5 4 6 3 2 1 5 8 6 3 3 4 6 3 8 14 7 12 28 27 24
20 16 19 15 6 2 2 2 5 3 4 6 7 7 7 7 4 6 7 5 4 2 4 7 6 3 4 4 7 8 7 4 5 5 5 7 4 6 7 14 13 17 27 27 26
21 19 17 17 8 10 4 4 3 4 6 1 6 5 9 7 7 10 8 5 6 4 2 3 8 4 5 6 6 3 7 5 2 1 5 4 4 5 4 18 26 32 31 29 27
22 18 20 10 11 13 4 2 7 6 2 5 4 7 5 7 7 6 9 10 9 9 7 4 5 5 5 4 6 3 2 5 6 3 4 2 4 6 7 8 17 20 26 31 29
23 20 18 9 16 17 4 6 5 4 5 6 1 7 10 10 8 9 10 8 8 9 10 7 3 3 2 6 2 5 4 3 4 2 2 4 2 4 4 7 12 15 26 29 26
17 11 2 22 22 8 4 7 5 10 10 3 4 1 3 3 3 7 12 10 9 6 12 7 4 4 3 2 3 4 2 6 5 4 4 1 6 5 8 9 11 16 28 27 27
7 3 7 26 6 4 3 5 4 7 13 6 2 4 1 3 3 6 4 2 8 12 5 0 6 2 3 4 3 6 6 5 5 4 2 5 5 5 1 10 16 18 21 25 22
15 8 9 11 4 3 5 5 6 7 10 6 4 3 0 3 3 3 4 8 10 5 8 4 2 3 7 7 7 5 4 3 5 3 4 5 5 3 14 14 20 24 22 18 15
6 3 6 5 9 8 4 6 6 13 15 8 1 4 6 3 2 1 2 4 8 9 10 9 4 6 6 5 3 3 5 5 5 4 3 6 5 6 4 10 14 21 18 14 15
3 3 6 4 4 6 1 4 6 6 5 7 4 3 3 1 3 3 3 1 5 6 5 5 4 3 3 3 1 2 3 5 1 4 5 7 7 6 11 9 15 24 22 18 13
5 5 9 10 14 5 1 4 9 14 6 6 8 5 5 5 2 2 5 2 3 2 4 3 2 3 1 4 7 2 4 6 4 1 3 6 5 3 19 22 19 18 15 12 13
4 4 3 7 7 4 3 7 9 10 5 4 10 6 8 3 2 4 14 13 7 5 3 4 4 4 2 3 6 4 2 3 5 5 6 5 6 7 5 13 18 18 18 16 11
Wind_Direction
7 5 3 2 0 355 348 342 329 304 285 269 252 240 238 237 243 244 243 224 204 219 258 234 209 200 237 237 216 191 158 227 245 43 355 142 166 169 161 137 162 203 165 155 157
4 2 2 2 360 355 351 349 345 326 278 257 246 231 230 235 245 251 247 220 208 202 194 219 245 279 269 250 189 189 192 234 267 116 37 6 112 155 129 151 120 124 145 157 166
2 0 -0 360 359 354 353 350 349 339 312 245 230 223 227 228 259 118 191 214 202 193 202 218 275 288 272 294 254 220 213 233 317 88 66 9 35 138 144 176 150 151 154 156 167
360 359 358 358 357 354 352 349 354 353 331 250 212 211 194 167 147 52 281 188 203 188 185 218 284 320 319 319 304 326 351 12 312 14 353 218 349 147 166 178 166 160 160 163 167
357 357 355 355 356 354 350 349 354 358 359 216 191 182 165 191 236 307 317 190 196 192 177 209 284 299 258 293 347 60 340 320 325 338 166 59 161 107 158 159 162 159 161 167 173
354 353 352 352 354 351 348 349 352 358 11 143 162 163 151 228 40 313 275 184 186 187 183 214 270 304 284 330 6 319 322 305 313 300 216 133 231 112 154 158 160 164 167 172 176
350 350 349 348 351 348 345 343 346 356 20 138 159 169 196 314 30 340 141 153 169 169 180 207 314 323 333 330 330 308 313 335 298 274 237 109 36 125 165 161 160 169 173 175 179
346 347 346 344 345 347 345 344 353 5 49 131 146 162 257 151 208 6 111 117 132 167 226 291 296 311 294 297 314 297 31 96 279 150 197 108 231 264 156 160 166 174 178 180 184
341 343 344 342 340 348 351 15 23 3 59 150 143 290 197 167 203 141 147 134 109 80 265 295 280 296 304 51 338 359 249 198 305 200 122 117 196 255 139 170 172 178 181 185 184
337 339 340 340 335 347 346 333 334 331 317 197 245 307 212 210 206 162 180 208 235 249 255 260 269 17 7 76 260 294 26 21 172 264 102 105 167 129 123 121 178 177 183 184 185
334 334 336 338 329 346 354 13 0 358 294 233 157 275 39 127 156 210 210 239 234 256 203 274 57 249 242 208 220 252 356 113 248 263 95 141 130 160 118 101 102 158 178 181 186
331 331 332 338 321 323 25 38 9 333 300 271 261 265 267 227 178 200 196 204 215 232 94 5 237 246 246 225 208 333 3 328 342 305 84 142 173 206 112 115 125 125 153 173 177
328 328 330 340 293 171 14 49 6 336 277 284 236 239 223 176 187 202 192 207 208 243 233 177 249 277 233 348 2 352 7 326 215 9 352 101 9 117 21 107 115 127 140 149 157
324 324 329 347 206 319 71 49 10 318 49 274 188 221 196 185 235 207 198 182 227 228 235 221 246 196 80 55 107 49 315 33 24 66 219 90 242 229 170 95 114 129 137 139 138
318 318 319 317 301 158 354 328 324 341 15 207 175 194 186 181 156 197 200 206 238 253 34 262 314 222 102 170 110 206 347 26 321 18 37 340 90 248 137 131 148 140 136 142 146
310 313 302 300 289 236 270 228 20 50 255 219 165 153 128 212 250 157 183 208 238 242 232 235 273 178 166 162 154 290 26 20 36 85 18 250 140 233 174 172 170 153 145 146 148
306 301 289 276 252 185 284 305 56 152 307 200 171 137 163 191 187 182 177 196 175 58 323 334 297 260 141 64 3 63 49 359 11 8 224 321 104 229 227 180 160 149 154 159 159
306 298 274 260 235 229 272 60 185 231 252 137 146 130 174 172 223 185 152 199 252 132 65 182 322 161 149 148 172 119 133 141 158 297 268 326 355 296 74 143 156 163 166 165 164
311 299 277 242 216 196 166 111 213 221 313 336 88 147 243 226 169 155 186 200 210 163 177 137 353 356 92 136 116 305 52 172 112 357 32 293 27 3 108 113 113 149 161 168 171
320 312 271 188 180 171 100 228 232 260 354 21 231 178 191 214 164 169 185 218 226 180 153 206 124 298 129 65 15 139 167 38 12 117 276 319 276 218 188 119 139 138 150 169 172
324 314 89 174 172 177 166 234 279 282 340 308 165 126 156 75 201 219 202 231 190 166 146 147 110 266 78 128 186 9 359 61 114 117 146 11 292 217 186 165 162 153 147 144 141
329 324 102 161 138 194 192 212 335 295 306 284 152 190 235 96 0 358 152 294 204 142 108 92 131 123 192 306 257 171 174 126 121 244 132 150 261 323 19 134 158 157 151 150 152
331 283 190 192 180 235 267 268 258 275 273 276 227 169 348 119 52 38 52 336 89 82 151 172 15 64 355 356 5 43 10 93 104 83 184 137 262 343 110 115 145 148 147 143 143
320 333 297 235 219 161 208 263 268 277 271 221 242 58 44 37 161 101 108 41 83 104 109 95 104 139 177 190 162 328 355 355 97 102 190 209 236 245 174 142 143 141 146 150 146
287 278 1 326 337 334 275 276 285 300 275 144 63 90 115 354 7 119 105 126 33 125 72 95 119 115 158 196 122 195 325 352 66 205 149 256 209 251 215 170 153 133 126 123 129
335 5 338 304 296 321 109 263 229 262 233 247 136 193 76 98 11 72 154 360 180 305 92 21 179 104 33 360 34 6 0 3 356 330 238 212 259 230 137 137 143 140 137 139 139
336 291 303 293 335 1 40 317 323 300 246 329 196 105 88 121 43 62 93 86 96 123 102 88 109 81 220 343 48 354 137 350 297 271 210 279 215 175 169 155 155 151 151 148 147